Savanna, IA

4:12 PM CDT on October 19, 2019 (GMT -0500)
Tri-Township

Weather History for KSFY - September, 2019

Change the Weather History Date:

Monday, September 16, 2019

  Actual Average (KCWI) Record (KCWI)
Temperature  
Mean Temperature 72 °F -  
Max Temperature 82 °F 73 °F 88 °F (1955)
Min Temperature 62 °F 53 °F 34 °F (1984)
Cooling Degree Days 7    
Growing Degree Days 22 (Base 50)    
Moisture  
Dew Point 65 °F    
Average Humidity 85    
Maximum Humidity 100    
Minimum Humidity 54    
Precipitation  
Precipitation 0.00 in - - ()
Sea Level Pressure  
Sea Level Pressure 30.10 in    
Wind  
Wind Speed 3 mph (East)    
Max Wind Speed 9 mph    
Max Gust Speed -    
Visibility 6 miles    
Events Fog    
Averages and records for this station are not official NWS values.
T = Trace of Precipitation, MM = Missing Value Source: NWS Daily Summary

Daily Weather History Graph

Daily Weather History Graph

Search for Another Location

Airport or City:

Astronomy

Sep. 16, 2019 Rise Set
Actual Time 6:41 AM CDT 7:08 PM CDT
Civil Twilight 6:13 AM CDT 7:36 PM CDT
Nautical Twilight 5:40 AM CDT 8:09 PM CDT
Astronomical Twilight 5:06 AM CDT 8:43 PM CDT
Moon 8:41 PM CDT (9/16) 8:49 AM CDT (9/16)
Length of Visible Light 13h 23m
Length of Day
12h 27m
Waning Gibbous, 94% of the Moon is Illuminated
Sep 16
Waning Gibbous
Sep 21
Last Quarter
Sep 28
New
Oct 5
First Quarter
Oct 13
Full

Hourly Weather History & Observations

Time (CDT) Temp. Heat Index Dew Point Humidity Pressure Visibility Wind Dir Wind Speed Gust Speed Precip Events Conditions
12:15 AM 68.0 °F - 68.0 °F 100% 30.05 in 5.0 mi NNE 3.5 mph - N/A   Clear
12:35 AM 68.0 °F - 68.0 °F 100% 30.04 in 4.0 mi Calm Calm - N/A   Clear
12:55 AM 66.2 °F - 66.2 °F 100% 30.05 in 0.2 mi Calm Calm - N/A Fog Fog
1:15 AM 66.2 °F - 66.2 °F 100% 30.06 in 0.5 mi Calm Calm - N/A Fog Fog
1:35 AM 66.2 °F - 66.2 °F 100% 30.06 in 0.2 mi Calm Calm - N/A Fog Fog
1:55 AM 64.4 °F - 64.4 °F 100% 30.06 in 0.2 mi North 3.5 mph - N/A Fog Fog
2:15 AM 64.4 °F - 64.4 °F 100% 30.06 in 0.2 mi Calm Calm - N/A Fog Fog
2:35 AM 62.6 °F - 62.6 °F 100% 30.06 in 0.2 mi North 3.5 mph - N/A Fog Fog
2:55 AM 62.6 °F - 62.6 °F 100% 30.07 in 0.2 mi Calm Calm - N/A Fog Fog
3:15 AM 62.6 °F - 62.6 °F 100% 30.07 in 0.2 mi North 3.5 mph - N/A Fog Fog
3:35 AM 62.6 °F - 62.6 °F 100% 30.07 in 0.2 mi North 4.6 mph - N/A Fog Fog
3:55 AM 62.6 °F - 62.6 °F 100% 30.08 in 0.2 mi Calm Calm - N/A Fog Fog
4:15 AM 62.6 °F - 62.6 °F 100% 30.08 in 0.2 mi Calm Calm - N/A Fog Fog
4:35 AM 64.4 °F - 64.4 °F 100% 30.08 in 0.2 mi Calm Calm - N/A Fog Fog
4:55 AM 64.4 °F - 64.4 °F 100% 30.09 in 0.2 mi Calm Calm - N/A Fog Fog
5:15 AM 64.4 °F - 62.6 °F 94% 30.09 in 0.2 mi Calm Calm - N/A Fog Fog
5:35 AM 62.6 °F - 62.6 °F 100% 30.09 in 0.2 mi Calm Calm - N/A Fog Fog
5:55 AM 62.6 °F - 62.6 °F 100% 30.10 in 0.5 mi Calm Calm - N/A   Drizzle
6:15 AM 62.6 °F - 62.6 °F 100% 30.11 in 0.5 mi Calm Calm - N/A   Light Drizzle
6:35 AM 62.6 °F - 62.6 °F 100% 30.11 in 0.8 mi Calm Calm - N/A   Overcast
6:55 AM 62.6 °F - 62.6 °F 100% 30.12 in 0.2 mi Calm Calm - N/A Fog Fog
7:15 AM 62.6 °F - 62.6 °F 100% 30.12 in 0.2 mi Calm Calm - N/A Fog Fog
7:35 AM 62.6 °F - 62.6 °F 100% 30.13 in 0.2 mi Calm Calm - N/A Fog Fog
7:55 AM 62.6 °F - 62.6 °F 100% 30.13 in 0.2 mi East 3.5 mph - N/A Fog Fog
8:15 AM 62.6 °F - 62.6 °F 100% 30.14 in 0.2 mi Calm Calm - N/A Fog Fog
8:35 AM 64.4 °F - 64.4 °F 100% 30.15 in 0.2 mi ENE 3.5 mph - N/A Fog Fog
9:15 AM 64.4 °F - 64.4 °F 100% 30.15 in 1.0 mi ENE 4.6 mph - N/A   Overcast
9:35 AM 66.2 °F - 64.4 °F 94% 30.15 in 5.0 mi ENE 3.5 mph - N/A   Overcast
9:55 AM 68.0 °F - 68.0 °F 100% 30.16 in 10.0 mi East 3.5 mph - N/A   Overcast
10:15 AM 68.0 °F - 68.0 °F 100% 30.15 in 10.0 mi ENE 3.5 mph - N/A   Mostly Cloudy
10:35 AM 69.8 °F - 69.8 °F 100% 30.15 in 10.0 mi East 4.6 mph - N/A   Scattered Clouds
10:55 AM 71.6 °F - 69.8 °F 94% 30.15 in 10.0 mi ENE 4.6 mph - N/A   Clear
11:15 AM 73.4 °F - 69.8 °F 88% 30.15 in 10.0 mi East 5.8 mph - N/A   Clear
11:35 AM 75.2 °F - 68.0 °F 78% 30.14 in 10.0 mi East 9.2 mph - N/A   Clear
11:55 AM 77.0 °F - 68.0 °F 74% 30.14 in 10.0 mi East 8.1 mph - N/A   Clear
12:15 PM 78.8 °F - 68.0 °F 69% 30.13 in 10.0 mi East 8.1 mph - N/A   Clear
12:35 PM 78.8 °F - 68.0 °F 69% 30.12 in 10.0 mi East 4.6 mph - N/A   Clear
12:55 PM 80.6 °F 82.7 °F 66.2 °F 61% 30.12 in 10.0 mi East 6.9 mph - N/A   Clear
1:15 PM 80.6 °F 82.3 °F 64.4 °F 58% 30.11 in 10.0 mi East 6.9 mph - N/A   Clear
1:35 PM 80.6 °F 82.3 °F 64.4 °F 58% 30.11 in 10.0 mi East 8.1 mph - N/A   Clear
1:55 PM 80.6 °F 82.3 °F 64.4 °F 58% 30.11 in 10.0 mi East 6.9 mph - N/A   Clear
2:15 PM 82.4 °F 84.6 °F 66.2 °F 58% 30.11 in 10.0 mi ENE 5.8 mph - N/A   Clear
2:35 PM 80.6 °F 82.3 °F 64.4 °F 58% 30.10 in 10.0 mi East 4.6 mph - N/A   Clear
2:55 PM 82.4 °F 84.6 °F 66.2 °F 58% 30.10 in 10.0 mi East 5.8 mph - N/A   Clear
3:15 PM 82.4 °F 84.6 °F 66.2 °F 58% 30.10 in 10.0 mi Calm Calm - N/A   Clear
3:35 PM 82.4 °F 85.4 °F 68.0 °F 62% 30.09 in 10.0 mi ESE 6.9 mph - N/A   Clear
3:55 PM 82.4 °F 84.6 °F 66.2 °F 58% 30.09 in 10.0 mi ESE 4.6 mph - N/A   Clear
4:15 PM 82.4 °F 85.4 °F 68.0 °F 62% 30.09 in 10.0 mi ESE 8.1 mph - N/A   Clear
4:35 PM 82.4 °F 83.9 °F 64.4 °F 54% 30.08 in 10.0 mi ESE 6.9 mph - N/A   Clear
4:55 PM 82.4 °F 83.9 °F 64.4 °F 54% 30.08 in 10.0 mi ESE 5.8 mph - N/A   Clear
5:15 PM 80.6 °F 82.7 °F 66.2 °F 61% 30.08 in 10.0 mi ESE 3.5 mph - N/A   Clear
5:35 PM 80.6 °F 83.2 °F 68.0 °F 65% 30.09 in 10.0 mi ESE 4.6 mph - N/A   Clear
5:55 PM 78.8 °F - 68.0 °F 69% 30.09 in 10.0 mi ESE 4.6 mph - N/A   Clear
6:15 PM 78.8 °F - 68.0 °F 69% 30.09 in 10.0 mi ESE 4.6 mph - N/A   Clear
6:35 PM 77.0 °F - 68.0 °F 74% 30.09 in 10.0 mi ESE 4.6 mph - N/A   Clear
6:55 PM 73.4 °F - 68.0 °F 83% 30.09 in 10.0 mi ESE 4.6 mph - N/A   Clear
7:15 PM 73.4 °F - 68.0 °F 83% 30.09 in 10.0 mi ESE 3.5 mph - N/A   Clear
7:35 PM 71.6 °F - 68.0 °F 88% 30.09 in 10.0 mi ESE 3.5 mph - N/A   Clear
7:55 PM 71.6 °F - 68.0 °F 88% 30.09 in 10.0 mi East 3.5 mph - N/A   Clear
8:15 PM 69.8 °F - 68.0 °F 94% 30.10 in 10.0 mi East 3.5 mph - N/A   Clear
8:35 PM 68.0 °F - 68.0 °F 100% 30.10 in 10.0 mi East 3.5 mph - N/A   Clear
8:55 PM 68.0 °F - 64.4 °F 88% 30.09 in 10.0 mi ESE 5.8 mph - N/A   Clear
9:15 PM 68.0 °F - 64.4 °F 88% 30.10 in 10.0 mi ESE 5.8 mph - N/A   Clear
9:35 PM 68.0 °F - 64.4 °F 88% 30.10 in 10.0 mi East 4.6 mph - N/A   Clear
9:55 PM 68.0 °F - 64.4 °F 88% 30.10 in 10.0 mi East 4.6 mph - N/A   Clear
10:15 PM 68.0 °F - 64.4 °F 88% 30.11 in 10.0 mi East 3.5 mph - N/A   Clear
10:35 PM 68.0 °F - 62.6 °F 83% 30.11 in 10.0 mi Calm Calm - N/A   Clear
10:55 PM 68.0 °F - 62.6 °F 83% 30.11 in 10.0 mi Calm Calm - N/A   Clear
11:15 PM 68.0 °F - 62.6 °F 83% 30.11 in 10.0 mi Calm Calm - N/A   Clear
11:35 PM 64.4 °F - 62.6 °F 94% 30.11 in 10.0 mi East 5.8 mph - N/A   Clear
11:55 PM 64.4 °F - 62.6 °F 94% 30.12 in 10.0 mi ENE 3.5 mph - N/A   Clear